Location: Clermont
(50.2608°N, 4.3172°E)
Time: 05:36:44
(UTC+00:00)

Cosmos 44 - Pass Details

Date: 13 August 2020
Orbit: 583 x 779 km, 65.1° (Epoch: 23 September)

Event Time Altitude Azimuth Distance (km) Brightness Sun altitude
Rises 20:56:42 0° 319° (NW) 3,025 8.5 -15.4°
Reaches altitude 10° 20:58:58 10° 320° (NW) 2,139 7.2 -15.6°
Maximum altitude 21:03:53 89° 237° (WSW) 721 3.3 -16.1°
Enters shadow 21:06:36 28° 142° (SE) 1,341 4.2 -16.4°
